Weather History for Olean, NY

Change the Weather History Date:

Monday, October 7, 2013

  Actual Average (KBFD) Record (KBFD)
Temperature  
Mean Temperature 56 °F 49 °F  
Max Temperature 68 °F 60 °F 78 °F (1963)
Min Temperature 44 °F 38 °F 20 °F (1964)
Degree Days  
Heating Degree Days 9 12  
Month to date heating degree days 75  
Since 1 July heating degree days 492  
Cooling Degree Days 0 0  
Month to date cooling degree days 0  
Year to date cooling degree days 192  
Growing Degree Days 6 (Base 50)    
Moisture  
Dew Point 48 °F    
Average Humidity 82    
Maximum Humidity 100    
Minimum Humidity 58    
Precipitation  
Precipitation 0.00 in 0.11 in 1.46 in (2005)
Month to date precipitation 0.84  
Year to date precipitation 34.71  
Sea Level Pressure  
Sea Level Pressure 29.83 in    
Wind  
Wind Speed 11 mph (SW)    
Max Wind Speed 15 mph    
Max Gust Speed 31 mph    
Visibility 9 miles    
Events Rain    
T = Trace of Precipitation, MM = Missing Value Source: NWS Daily Summary

Daily Weather History Graph

Daily Weather History Graph

Search for Another Location

Airport:

Trip Planner

Search our weather history database for the weather conditions in past years. The results will help you decide how hot, cold, wet, or windy it might be!

Date:

Astronomy

Oct. 07, 2013 Rise Set
Actual Time 7:17 AM EDT 6:44 PM EDT
Civil Twilight 6:49 AM EDT 7:12 PM EDT
Nautical Twilight 6:16 AM EDT 7:44 PM EDT
Astronomical Twilight 5:44 AM EDT 8:17 PM EDT
Moon 10:08 AM EDT (10/7) 8:24 PM EDT (10/7)
Length of Visible Light 12h 22m
Length of Day
11h 26m
Waxing Crescent, 8% of the Moon is Illuminated
Oct 7
Waxing Crescent
Oct 11
First Quarter
Oct 18
Full
Oct 26
Last Quarter
Nov 3
New

Hourly Weather History & Observations

Time (EDT) Temp. Windchill Dew Point Humidity Pressure Visibility Wind Dir Wind Speed Gust Speed Precip Events Conditions
12:15 AM 68.0 °F - 59.0 °F 73% 29.82 in 10.0 mi South 12.7 mph 27.6 mph N/A   Scattered Clouds
12:35 AM 68.0 °F - 59.0 °F 73% 29.82 in 10.0 mi South 15.0 mph 24.2 mph N/A   Scattered Clouds
12:55 AM 68.0 °F - 59.0 °F 73% 29.81 in 10.0 mi South 12.7 mph 21.9 mph N/A   Scattered Clouds
1:15 AM 68.0 °F - 59.0 °F 73% 29.81 in 10.0 mi South 10.4 mph 26.5 mph N/A   Scattered Clouds
1:35 AM 68.0 °F - 59.0 °F 73% 29.80 in 10.0 mi South 15.0 mph 24.2 mph N/A   Scattered Clouds
1:55 AM 68.0 °F - 59.0 °F 73% 29.79 in 10.0 mi South 12.7 mph 31.1 mph N/A   Scattered Clouds
2:15 AM 66.2 °F - 59.0 °F 78% 29.78 in 10.0 mi South 13.8 mph 31.1 mph N/A   Scattered Clouds
2:35 AM 66.2 °F - 59.0 °F 78% 29.77 in 10.0 mi South 9.2 mph 18.4 mph N/A   Scattered Clouds
2:55 AM 66.2 °F - 59.0 °F 78% 29.76 in 10.0 mi South 15.0 mph 25.3 mph N/A   Scattered Clouds
3:15 AM 66.2 °F - 59.0 °F 78% 29.75 in 10.0 mi South 11.5 mph 23.0 mph N/A   Mostly Cloudy
3:35 AM 66.2 °F - 59.0 °F 78% 29.74 in 10.0 mi South 10.4 mph 19.6 mph N/A   Mostly Cloudy
3:55 AM 66.2 °F - 59.0 °F 78% 29.74 in 10.0 mi South 11.5 mph 23.0 mph N/A   Overcast
4:15 AM 66.2 °F - 59.0 °F 78% 29.73 in 10.0 mi South 13.8 mph 23.0 mph N/A   Overcast
4:35 AM 66.2 °F - 59.0 °F 78% 29.73 in 10.0 mi South 12.7 mph 26.5 mph N/A   Overcast
4:55 AM 66.2 °F - 59.0 °F 78% 29.72 in 10.0 mi South 11.5 mph 24.2 mph N/A   Overcast
5:15 AM 64.4 °F - 59.0 °F 83% 29.72 in 10.0 mi SSW 13.8 mph 26.5 mph N/A   Overcast
5:35 AM 64.4 °F - 59.0 °F 83% 29.71 in 10.0 mi South 11.5 mph 21.9 mph N/A   Overcast
5:55 AM 64.4 °F - 59.0 °F 83% 29.71 in 10.0 mi SSW 15.0 mph 20.7 mph N/A   Overcast
6:15 AM 64.4 °F - 59.0 °F 83% 29.71 in 10.0 mi SSW 12.7 mph 25.3 mph N/A   Overcast
6:35 AM 64.4 °F - 59.0 °F 83% 29.70 in 10.0 mi South 12.7 mph 17.3 mph N/A   Overcast
6:55 AM 64.4 °F - 59.0 °F 83% 29.69 in 10.0 mi South 8.1 mph - N/A   Overcast
7:15 AM 60.8 °F - 55.4 °F 82% 29.71 in 5.0 mi WNW 6.9 mph 24.2 mph N/A Rain Heavy Rain
7:35 AM 55.4 °F - 55.4 °F 100% 29.72 in 4.0 mi WNW 4.6 mph 20.7 mph N/A Rain Heavy Rain
7:55 AM 53.6 °F - 53.6 °F 100% 29.73 in 5.0 mi West 4.6 mph - N/A Rain Heavy Rain
8:15 AM 53.6 °F - 51.8 °F 94% 29.74 in 5.0 mi WSW 10.4 mph 19.6 mph N/A Rain Rain
8:35 AM 51.8 °F - 51.8 °F 100% 29.73 in 7.0 mi WSW 9.2 mph 25.3 mph N/A Rain Heavy Rain
8:55 AM 51.8 °F - 50.0 °F 94% 29.73 in 7.0 mi WSW 5.8 mph - N/A Rain Light Rain
9:15 AM 51.8 °F - 51.8 °F 100% 29.75 in 7.0 mi SW 8.1 mph 17.3 mph N/A Rain Rain
9:35 AM 51.8 °F - 50.0 °F 94% 29.76 in 7.0 mi SW 5.8 mph - N/A Rain Light Rain
9:55 AM 51.8 °F - 50.0 °F 94% 29.76 in 5.0 mi SW 5.8 mph - N/A Rain Rain
10:15 AM 51.8 °F - 50.0 °F 94% 29.78 in 5.0 mi SW 8.1 mph - N/A Rain Rain
10:35 AM 50.0 °F - 50.0 °F 100% 29.77 in 5.0 mi SW 6.9 mph - N/A Rain Rain
10:55 AM 50.0 °F - 50.0 °F 100% 29.76 in 7.0 mi SW 9.2 mph 17.3 mph N/A Rain Light Rain
11:15 AM 50.0 °F - 50.0 °F 100% 29.77 in 5.0 mi WSW 5.8 mph - N/A Rain Rain
11:35 AM 50.0 °F - 50.0 °F 100% 29.77 in 10.0 mi WSW 9.2 mph - N/A Rain Light Rain
11:55 AM 50.0 °F - 48.2 °F 94% 29.76 in 10.0 mi WSW 8.1 mph - N/A   Drizzle
12:15 PM 48.2 °F - 46.4 °F 93% 29.76 in 10.0 mi West 9.2 mph 20.7 mph N/A   Drizzle
12:35 PM 48.2 °F - 46.4 °F 93% 29.77 in 10.0 mi WSW 8.1 mph - N/A   Overcast
12:55 PM 50.0 °F - 46.4 °F 87% 29.77 in 10.0 mi West 11.5 mph 21.9 mph N/A   Overcast
1:15 PM 50.0 °F - 42.8 °F 76% 29.76 in 10.0 mi West 12.7 mph 25.3 mph N/A   Mostly Cloudy
1:35 PM 51.8 °F - 42.8 °F 71% 29.77 in 10.0 mi WSW 8.1 mph 19.6 mph N/A   Mostly Cloudy
1:55 PM 51.8 °F - 37.4 °F 58% 29.77 in 10.0 mi West 10.4 mph 28.8 mph N/A   Scattered Clouds
2:15 PM 51.8 °F - 37.4 °F 58% 29.78 in 10.0 mi West 10.4 mph 25.3 mph N/A   Scattered Clouds
2:35 PM 51.8 °F - 37.4 °F 58% 29.78 in 10.0 mi West 9.2 mph 23.0 mph N/A   Scattered Clouds
2:55 PM 51.8 °F - 39.2 °F 62% 29.80 in 10.0 mi SW 12.7 mph 20.7 mph N/A   Mostly Cloudy
3:15 PM 51.8 °F - 37.4 °F 58% 29.81 in 10.0 mi WSW 13.8 mph 27.6 mph N/A   Mostly Cloudy
3:35 PM 51.8 °F - 39.2 °F 62% 29.83 in 10.0 mi WSW 10.4 mph 18.4 mph N/A   Overcast
3:55 PM 50.0 °F - 37.4 °F 62% 29.84 in 10.0 mi WSW 12.7 mph 23.0 mph N/A   Overcast
4:15 PM 50.0 °F - 37.4 °F 62% 29.84 in 10.0 mi WSW 11.5 mph 20.7 mph N/A   Overcast
4:35 PM 51.8 °F - 39.2 °F 62% 29.85 in 10.0 mi WSW 12.7 mph 21.9 mph N/A   Overcast
4:55 PM 50.0 °F - 37.4 °F 62% 29.87 in 10.0 mi WSW 10.4 mph 18.4 mph N/A   Overcast
5:15 PM 50.0 °F - 37.4 °F 62% 29.87 in 10.0 mi WSW 11.5 mph 24.2 mph N/A   Overcast
5:35 PM 50.0 °F - 37.4 °F 62% 29.88 in 10.0 mi WSW 13.8 mph 26.5 mph N/A   Overcast
5:55 PM 50.0 °F - 37.4 °F 62% 29.88 in 10.0 mi West 5.8 mph 18.4 mph N/A   Overcast
6:15 PM 50.0 °F - 37.4 °F 62% 29.89 in 10.0 mi WSW 8.1 mph 18.4 mph N/A   Overcast
6:35 PM 48.2 °F - 39.2 °F 71% 29.90 in 10.0 mi WSW 11.5 mph 21.9 mph N/A   Overcast
6:55 PM 48.2 °F - 39.2 °F 71% 29.92 in 10.0 mi WSW 11.5 mph 17.3 mph N/A   Overcast
7:15 PM 46.4 °F 41.9 °F 41.0 °F 81% 29.94 in 10.0 mi WSW 9.2 mph 16.1 mph N/A Rain Rain
7:35 PM 46.4 °F 42.4 °F 41.0 °F 81% 29.94 in 10.0 mi WSW 8.1 mph 18.4 mph N/A   Drizzle
7:55 PM 44.6 °F 41.4 °F 42.8 °F 93% 29.95 in 10.0 mi WSW 5.8 mph - N/A Rain Light Rain
8:15 PM 46.4 °F 41.9 °F 42.8 °F 87% 29.96 in 10.0 mi SW 9.2 mph 17.3 mph N/A   Light Drizzle
8:35 PM 46.4 °F 42.9 °F 42.8 °F 87% 29.97 in 10.0 mi WSW 6.9 mph - N/A   Overcast
8:55 PM 46.4 °F 41.1 °F 41.0 °F 81% 29.98 in 10.0 mi WSW 11.5 mph 16.1 mph N/A Rain Light Rain
9:15 PM 46.4 °F 42.4 °F 42.8 °F 87% 30.00 in 10.0 mi WSW 8.1 mph - N/A Rain Rain
9:35 PM 44.6 °F 40.7 °F 42.8 °F 93% 30.01 in 7.0 mi WSW 6.9 mph - N/A Rain Light Rain
9:55 PM 44.6 °F 42.2 °F 42.8 °F 93% 30.02 in 7.0 mi WSW 4.6 mph - N/A Rain Light Rain
10:15 PM 44.6 °F 42.2 °F 44.6 °F 100% 30.04 in 7.0 mi West 4.6 mph - N/A Rain Light Rain
10:35 PM 44.6 °F 42.2 °F 44.6 °F 100% 30.06 in 7.0 mi WNW 4.6 mph - N/A Rain Light Rain
10:55 PM 44.6 °F 42.2 °F 44.6 °F 100% 30.06 in 10.0 mi West 4.6 mph - N/A   Overcast
11:15 PM 44.6 °F - 44.6 °F 100% 30.07 in 10.0 mi Calm Calm - N/A   Overcast
11:35 PM 44.6 °F - 44.6 °F 100% 30.08 in 10.0 mi Calm Calm - N/A   Overcast
11:55 PM 44.6 °F - 44.6 °F 100% 30.08 in 10.0 mi Calm Calm - N/A   Overcast